Temp
25 26 25 23 22 20 19 18 17 16 16 15 14 14 14 14 13 12 12 12 12 12 13 13 12 12 12 12 12 13 13 13 13 14 15 16 15 15 14 14 13 12 11
25 24 22 22 20 18 18 18 17 16 16 15 14 14 14 13 12 12 11 11 11 12 12 12 12 12 11 11 11 12 12 12 12 12 12 12 14 12 12 12 12 11 11
24 23 21 21 18 18 18 18 17 16 16 15 15 14 13 13 11 11 10 10 10 11 11 11 11 11 11 10 10 11 12 12 11 12 12 10 10 11 10 11 11 10 10
21 21 20 19 18 18 17 16 16 16 15 15 15 15 13 12 11 11 10 9 9 9 10 10 10 10 10 9 10 10 11 11 10 11 10 11 11 8 9 9 9 8 7
20 20 19 19 17 17 17 17 16 16 16 16 16 15 13 12 12 10 9 8 8 8 9 9 9 9 9 9 9 9 9 10 10 10 9 9 9 9 7 6 7 6 5
19 20 20 18 17 18 18 18 17 16 16 16 15 15 13 13 11 10 9 8 8 8 8 8 8 8 8 8 8 8 8 8 8 8 8 7 6 5 6 4 5 5 3
19 19 17 16 18 18 18 18 18 16 16 15 15 14 14 13 12 10 9 8 7 7 7 7 7 7 7 7 7 7 7 7 7 6 5 5 4 5 5 5 3 4 4
18 18 17 18 17 18 18 17 17 17 16 15 15 14 14 13 12 11 9 9 8 7 7 6 6 6 6 6 6 6 6 5 5 5 4 4 3 3 3 3 2 2 4
16 16 18 20 19 17 17 17 17 16 16 15 15 14 14 13 12 11 10 9 8 7 6 6 6 5 5 5 5 5 4 4 4 4 3 3 2 2 2 2 1 1 1
16 15 15 17 19 18 18 17 16 16 15 15 14 13 13 13 12 11 10 9 8 7 6 5 5 5 5 5 4 4 4 4 3 3 3 3 2 2 2 1 1 1 0
16 15 16 17 17 17 17 16 15 14 14 14 13 13 12 12 12 10 9 8 7 6 5 5 4 4 4 4 4 3 3 3 2 2 2 2 2 2 1 1 1 1 1
16 15 16 17 16 16 15 15 14 14 13 13 12 11 11 11 10 9 8 7 6 5 5 4 4 4 3 3 3 3 3 2 2 2 1 2 2 1 1 1 1 1 1
17 15 13 13 14 15 15 13 13 13 12 12 11 10 10 9 8 7 6 6 5 4 4 3 3 2 3 3 3 2 2 1 1 1 1 0 1 1 0 0 0 1 1
17 14 12 12 14 14 14 13 12 11 12 11 10 10 9 8 7 6 5 5 4 4 3 3 2 2 2 2 2 1 1 0 -0 -0 -0 -1 -1 -1 -1 -1 -0 -0 0
15 13 12 11 13 13 13 12 12 12 11 10 10 8 7 6 5 4 4 3 3 3 2 2 1 1 1 0 -0 -1 -1 -2 -2 -2 -3 -3 -4 -3 -2 -2 -2 -2 -2
14 13 12 12 12 12 12 12 11 11 10 9 9 7 6 4 3 3 2 2 -0 1 1 0 -1 -0 -1 -2 -2 -1 -2 -2 -2 -4 -5 -6 -6 -7 -7 -7 -5 -4 -3
12 11 10 10 11 11 11 10 10 9 9 8 7 5 3 1 1 -0 -0 -1 -1 -1 -1 -2 -2 -3 -3 -2 -0 -1 -2 -2 -3 -4 -5 -6 -7 -7 -7 -8 -8 -8 -6
11 10 9 9 9 9 9 8 8 8 7 6 4 2 1 0 -1 -1 -1 -2 -2 -2 -2 -3 -4 -4 -4 -2 -1 -1 -2 -3 -4 -5 -6 -6 -7 -7 -7 -8 -8 -8 -9
9 8 8 7 7 7 7 7 6 6 5 3 1 0 -1 -1 -1 -2 -2 -2 -2 -3 -4 -4 -4 -5 -4 -4 -1 -2 -4 -5 -6 -5 -5 -5 -6 -8 -8 -8 -10 -10 -10
8 8 6 5 4 4 5 6 4 3 2 1 -0 -1 -1 -2 -1 -2 -2 -3 -3 -4 -4 -5 -5 -5 -5 -5 -4 -3 -5 -6 -7 -7 -8 -7 -7 -8 -8 -8 -9 -10 -10
7 8 5 4 4 4 3 2 2 1 0 -0 -1 -2 -1 -2 -2 -3 -3 -3 -3 -4 -5 -5 -6 -6 -5 -5 -5 -5 -6 -7 -8 -9 -10 -9 -9 -9 -10 -9 -9 -9 -10
5 6 4 3 3 3 2 1 0 -0 -1 -1 -2 -2 -2 -3 -3 -3 -3 -4 -4 -5 -6 -6 -7 -7 -6 -6 -6 -6 -6 -7 -8 -9 -10 -10 -10 -10 -10 -9 -9 -9 -9
4 5 4 3 2 2 1 0 -0 -1 -2 -2 -3 -3 -3 -3 -3 -3 -4 -4 -5 -6 -6 -7 -7 -7 -7 -7 -6 -5 -6 -7 -7 -9 -10 -10 -10 -10 -10 -9 -9 -9 -9
4 6 4 3 2 1 1 0 -1 -2 -2 -3 -3 -4 -4 -4 -4 -4 -4 -5 -5 -5 -6 -6 -8 -8 -8 -7 -7 -7 -7 -8 -8 -10 -10 -10 -10 -10 -10 -10 -9 -9 -9
5 6 4 3 1 0 -0 -1 -2 -2 -3 -4 -4 -4 -4 -5 -5 -5 -5 -5 -5 -5 -6 -6 -7 -8 -8 -8 -8 -7 -7 -7 -8 -9 -11 -11 -11 -11 -10 -10 -10 -10 -10
5 3 3 1 -0 -1 -1 -2 -2 -3 -4 -4 -5 -5 -5 -5 -5 -5 -5 -5 -5 -5 -5 -5 -5 -6 -6 -8 -9 -9 -8 -8 -9 -9 -10 -10 -10 -10 -10 -10 -10 -10 -10
Height
720 723 729 736 745 755 764 770 780 790 797 800 803 806 807 807 806 806 807 807 809 811 811 813 815 815 817 819 820 823 824 825 825 825 826 829 831 832 833 834 836 837 840
720 722 727 732 738 747 756 763 770 778 788 796 802 806 808 809 809 810 810 810 810 811 811 811 811 813 815 817 818 820 822 825 825 825 827 832 835 836 836 835 836 837 838
716 719 726 731 738 744 750 755 763 770 779 788 794 801 806 808 808 810 811 814 814 812 810 810 813 812 811 813 816 817 817 821 824 825 825 830 833 836 840 838 839 840 839
729 724 727 730 734 742 751 759 766 774 781 788 792 793 795 800 805 808 811 814 815 815 813 813 812 813 813 813 814 815 816 817 820 823 825 825 826 832 843 842 841 841 842
741 735 735 741 746 749 755 763 771 776 780 785 788 791 795 799 800 805 808 811 814 816 814 813 812 812 813 814 815 815 815 815 817 820 824 826 828 830 833 841 842 842 843
746 738 736 746 753 760 764 769 774 776 781 784 786 789 792 796 800 800 803 808 811 814 814 813 812 812 812 813 813 814 814 816 817 820 822 825 829 832 833 838 840 841 847
751 752 755 757 759 762 766 768 771 772 778 783 783 786 789 791 793 798 798 803 807 809 811 811 811 812 813 813 813 814 816 815 816 819 822 825 828 831 833 836 839 841 845
757 758 761 763 765 765 765 768 771 772 774 778 781 784 787 789 789 792 794 798 802 806 809 810 811 811 813 815 813 813 816 819 818 818 820 822 826 830 833 837 840 841 840
759 760 763 765 765 768 768 767 769 771 775 776 779 781 785 786 787 792 794 795 800 805 808 810 811 812 813 813 815 814 815 818 820 819 822 825 828 828 832 835 838 841 843
760 763 766 769 768 767 768 769 771 772 775 778 779 781 783 785 786 789 791 794 797 801 805 809 811 812 813 813 814 816 817 817 822 820 822 825 828 830 833 834 836 839 842
761 762 764 765 766 768 768 770 771 773 774 776 779 780 783 783 784 787 788 792 797 802 807 810 812 812 814 815 815 815 817 817 823 824 822 826 829 830 832 837 837 839 842
758 759 759 759 762 765 768 769 770 770 770 771 775 778 780 780 782 785 788 791 796 801 803 808 814 814 815 817 817 817 818 817 823 823 822 825 828 831 834 835 837 840 840
755 757 758 760 762 765 768 769 770 769 769 770 771 773 776 778 780 783 786 790 795 800 804 809 812 813 815 817 819 819 819 819 820 820 822 827 828 830 833 833 838 838 836
752 755 758 760 761 762 766 768 768 769 770 770 769 769 770 771 776 779 781 786 789 797 803 807 813 814 814 816 820 819 819 820 822 821 823 826 829 831 832 834 838 836 835
753 754 758 759 759 761 763 764 765 766 767 767 767 767 769 770 772 778 781 784 787 793 802 806 810 812 812 816 819 821 820 823 823 823 825 827 830 832 833 837 838 836 835
752 753 756 757 759 761 761 761 762 762 761 761 764 763 764 767 771 776 781 783 789 792 800 803 807 811 813 815 820 822 821 824 822 825 827 829 833 832 834 838 837 836 838
754 755 756 758 760 761 757 758 759 758 759 760 760 761 762 767 772 775 778 783 788 795 796 805 807 809 811 815 819 821 820 823 824 825 829 833 835 836 836 836 837 838 840
755 754 752 756 759 758 757 757 757 757 759 758 759 761 761 764 768 772 776 781 786 791 796 798 808 809 811 815 817 819 819 821 825 826 831 834 836 838 836 838 839 843 846
755 758 759 752 758 756 755 754 755 756 758 759 759 763 765 767 771 774 780 784 789 793 797 801 806 810 814 817 816 819 821 824 827 828 832 836 837 838 836 838 843 847 847
755 756 758 754 758 756 755 755 753 754 757 758 761 764 766 771 776 779 783 786 790 795 800 805 811 813 816 818 818 822 822 825 827 829 833 837 838 837 838 841 844 847 848
754 757 759 760 757 756 755 754 752 756 756 758 761 765 767 771 775 779 783 788 792 797 801 808 813 814 816 817 820 823 824 825 826 832 835 837 838 839 842 845 847 847 849
762 758 762 760 756 757 754 754 753 756 757 760 762 766 770 773 776 779 784 788 793 798 803 809 812 817 818 818 821 824 825 826 829 832 836 838 839 842 843 847 848 850 851
755 761 757 756 758 758 753 753 755 756 758 761 765 767 771 775 778 780 785 790 794 798 803 808 813 816 819 820 823 825 827 828 830 833 836 839 842 844 847 848 848 850 853
755 756 756 753 756 755 753 753 754 757 758 760 765 770 772 776 780 783 785 790 794 798 804 808 812 816 819 821 823 825 828 830 831 834 838 840 843 846 847 847 850 852 854
750 749 751 754 753 753 753 754 754 756 760 763 766 770 775 777 782 786 788 790 795 799 803 807 811 814 817 820 824 826 828 830 831 835 839 842 844 845 847 850 852 854 855
747 747 752 752 753 754 755 756 756 758 760 766 770 769 776 780 784 786 791 794 797 800 803 805 808 812 816 820 825 827 829 831 833 837 839 842 843 846 849 851 852 853 854
Wind_Speed
12 27 30 40 41 43 40 34 29 23 21 17 17 16 15 16 15 13 11 13 15 13 11 12 12 10 9 5 5 7 4 3 5 2 6 9 12 16 17 15 14 15 13
7 8 26 36 40 42 43 39 34 31 26 22 16 16 16 14 14 11 10 11 14 15 13 14 13 10 9 8 8 8 7 6 8 3 4 2 8 14 19 18 15 15 15
7 8 18 28 34 37 44 43 39 36 30 24 20 18 18 16 13 11 11 9 11 14 14 14 13 13 12 11 10 9 11 9 9 10 4 2 3 11 14 18 14 13 16
18 9 10 21 32 33 32 34 35 31 26 22 23 28 29 22 14 15 12 10 10 12 13 12 15 13 12 13 13 11 10 13 10 11 11 9 4 3 3 16 16 15 15
14 14 6 11 18 29 31 31 29 27 24 24 22 27 24 22 17 15 15 13 11 11 12 14 15 15 14 13 13 12 13 14 13 11 8 12 10 9 3 3 5 17 12
15 20 18 25 26 24 25 23 23 26 24 25 18 26 22 17 20 22 21 17 14 12 13 13 13 14 14 14 15 14 14 14 13 11 11 11 5 4 5 3 2 6 9
13 14 12 14 22 22 22 22 22 22 26 26 23 22 21 18 27 28 25 21 19 18 16 16 16 16 15 14 14 14 14 14 14 13 13 11 11 7 7 5 3 3 7
8 9 9 10 16 21 23 24 24 18 21 25 25 20 18 18 27 30 26 24 24 22 18 17 17 17 16 15 15 15 15 14 16 15 13 12 10 7 6 4 1 1 2
8 10 9 5 5 18 22 26 27 24 18 18 22 23 18 22 27 26 24 25 24 22 19 19 17 17 17 17 16 17 18 15 16 16 13 13 12 8 6 3 4 3 1
8 8 9 13 4 5 17 22 20 19 17 13 16 21 21 19 23 26 25 29 29 27 24 20 19 18 18 18 18 18 18 18 15 17 17 15 10 7 8 8 6 3 3
6 6 6 12 15 5 5 12 15 13 11 10 13 18 16 19 20 25 26 29 28 24 21 20 20 19 17 18 19 19 18 18 14 13 14 13 12 11 7 5 4 4 3
7 7 7 9 14 13 4 7 15 17 17 14 14 15 17 17 20 24 25 26 25 24 22 21 18 17 18 18 18 19 17 19 18 16 16 13 10 10 7 7 5 6 6
6 6 6 10 15 12 7 10 16 17 16 16 18 19 17 18 23 25 25 25 24 24 22 20 20 19 18 17 19 20 20 21 19 16 15 14 14 13 9 7 6 5 7
7 6 7 8 10 8 5 4 7 15 19 19 20 24 27 28 28 28 30 28 26 25 24 21 20 20 19 19 18 19 19 17 16 14 12 10 9 9 10 8 7 6 10
8 8 7 6 9 8 4 2 8 11 20 24 24 28 27 27 28 30 31 29 28 25 24 22 22 20 20 18 15 15 17 15 12 11 12 12 10 9 7 8 8 11 14
7 8 7 7 8 7 5 3 7 13 17 22 25 24 28 29 31 32 29 27 25 25 25 24 20 20 18 17 16 17 15 13 14 18 19 17 15 17 17 15 12 10 10
7 7 7 8 6 1 1 2 6 10 15 19 19 23 28 28 27 28 28 28 28 27 26 21 22 19 16 18 20 18 20 16 16 18 17 14 13 13 13 14 15 15 13
6 5 7 7 8 7 3 4 7 10 13 15 19 26 30 31 32 31 31 31 32 30 29 28 22 19 16 20 22 21 23 23 20 20 19 15 12 11 10 17 19 19 18
6 7 7 11 8 8 4 7 10 10 12 16 21 24 25 27 27 25 26 26 25 22 24 23 19 20 17 17 23 23 23 23 20 18 16 15 18 13 12 15 19 20 20
5 7 8 12 9 8 5 6 6 10 15 18 22 25 26 26 24 22 20 22 24 22 23 19 18 22 18 15 16 17 18 18 16 13 13 16 14 13 12 15 18 20 17
9 2 7 6 6 6 4 2 5 9 13 18 23 26 27 25 25 24 25 27 26 25 23 20 21 21 16 16 13 12 16 17 19 19 18 15 14 13 15 16 18 19 16
14 4 7 8 6 3 1 2 5 9 13 21 25 26 25 25 26 27 28 28 28 26 25 22 20 17 15 14 14 14 13 18 20 20 19 16 16 16 17 16 13 13 13
8 5 9 8 4 2 1 5 8 13 21 23 24 25 24 25 27 29 27 25 26 23 22 20 20 17 13 12 12 13 19 20 17 18 18 16 15 15 14 13 13 14 13
5 3 10 9 0 1 3 6 11 18 23 25 24 24 25 25 25 24 26 22 21 20 19 18 18 19 18 17 16 19 18 19 16 21 20 16 16 18 15 14 15 15 13
3 4 5 4 2 2 3 7 15 22 22 22 23 22 21 23 23 20 21 22 22 23 21 19 22 22 20 20 18 18 20 19 16 19 19 19 17 15 15 15 15 13 10
5 9 4 4 1 2 4 9 16 20 22 19 18 23 21 21 20 20 18 18 17 16 18 19 19 17 12 18 18 15 15 16 16 21 20 17 16 16 16 14 15 12 11
Wind_Direction
205 190 172 160 159 163 161 161 159 169 174 172 166 172 171 169 172 179 186 179 173 165 180 168 154 165 173 153 153 153 131 50 358 121 116 133 120 129 123 112 92 77 75
204 175 154 155 154 158 160 163 169 173 179 184 184 187 185 181 184 192 190 188 178 165 161 159 157 166 169 144 126 142 118 84 47 94 95 93 93 97 105 107 101 95 100
232 140 154 156 152 155 163 169 174 176 178 182 179 189 187 180 170 183 187 195 181 176 172 172 160 154 159 143 130 127 121 128 81 62 120 123 166 108 81 93 89 96 102
33 28 152 147 157 162 158 160 169 173 177 179 188 189 178 170 184 192 192 185 188 181 171 163 162 150 148 137 139 132 113 134 124 99 74 79 120 127 148 82 87 91 94
37 29 139 115 114 143 149 160 167 175 181 184 195 184 181 189 195 192 184 187 189 185 173 168 167 162 156 147 142 131 121 119 116 112 112 99 82 72 109 139 87 90 84
32 38 86 104 106 136 142 151 169 181 188 190 195 189 187 189 180 179 180 185 182 175 170 166 172 165 164 155 150 145 132 120 117 118 104 98 95 65 82 95 34 106 79
53 46 63 102 126 139 158 177 183 182 189 194 195 193 195 200 194 189 185 183 181 180 176 173 168 159 156 152 148 145 139 133 126 118 113 109 91 94 87 97 99 104 158
62 65 49 81 159 175 185 190 194 187 190 195 199 196 204 213 200 196 191 192 189 187 182 174 175 168 158 152 147 140 131 131 120 117 111 112 110 101 95 105 89 44 104
71 72 59 56 27 209 199 196 199 198 196 197 204 207 208 209 198 199 200 191 186 182 177 176 174 166 157 156 147 138 128 127 126 115 111 106 105 112 97 113 109 100 116
87 75 82 62 360 18 221 205 197 195 202 212 211 206 213 216 198 193 194 183 179 179 179 176 169 165 162 154 149 138 134 131 133 124 123 115 120 105 79 102 101 104 138
105 105 88 80 63 73 125 189 192 180 185 209 214 209 208 198 198 193 181 175 171 174 176 178 173 162 159 157 149 141 143 129 132 134 123 128 121 120 111 126 139 152 149
161 156 154 112 75 55 138 185 191 200 208 208 203 202 198 192 181 174 169 168 168 172 170 172 170 163 156 157 155 139 140 132 133 123 119 134 137 128 131 148 155 183 193
171 201 109 90 80 62 51 221 210 216 221 220 210 196 197 189 178 172 167 170 169 168 166 168 168 167 160 155 152 146 139 138 139 143 136 122 132 132 130 140 146 171 137
235 104 116 111 110 90 66 356 274 226 220 224 215 205 198 192 184 176 170 169 167 166 168 171 170 163 157 150 153 148 145 139 143 143 142 143 142 133 139 146 150 124 118
112 126 133 146 136 132 148 266 287 267 238 229 218 206 194 183 178 174 170 163 159 161 167 165 161 159 153 148 159 160 148 149 139 127 123 117 115 151 158 156 124 123 118
128 96 90 102 119 162 185 226 272 275 254 233 223 202 189 177 172 168 164 159 156 157 159 159 159 160 161 155 168 170 160 155 134 125 114 102 102 95 91 90 106 117 129
93 83 73 58 31 272 52 309 295 301 263 241 212 189 173 162 156 156 161 162 163 163 163 171 175 164 154 158 171 172 163 149 137 132 129 119 109 110 105 99 101 92 105
72 82 85 53 15 24 4 307 302 273 258 218 186 173 171 165 164 165 164 162 168 174 177 175 173 160 142 168 171 168 154 149 148 142 142 136 140 143 113 105 98 97 97
49 59 58 63 10 359 323 319 294 266 223 189 180 176 163 155 156 149 157 164 163 153 159 165 167 160 137 155 170 160 145 141 137 139 149 154 126 129 134 124 114 111 103
46 38 42 42 31 27 350 307 256 210 190 182 175 170 164 154 161 163 157 151 149 143 157 155 161 146 136 147 161 173 164 149 142 138 140 150 138 130 134 133 128 116 110
341 96 71 53 40 8 350 215 185 193 189 181 172 163 167 173 166 160 159 150 148 150 153 153 160 155 147 143 158 171 171 160 145 140 132 131 132 131 136 129 118 109 112
297 144 108 57 32 7 50 198 179 196 182 171 164 169 171 163 165 162 157 155 153 145 144 147 151 165 160 151 153 168 163 155 150 144 135 125 124 129 137 134 116 121 120
294 220 110 90 24 304 178 186 196 186 169 164 165 168 170 164 165 160 158 149 151 144 142 145 152 163 172 149 142 149 165 164 150 146 134 127 127 127 125 125 129 131 129
267 173 125 92 115 280 234 219 193 183 171 162 163 164 157 158 161 159 159 153 151 150 154 155 155 164 169 162 153 145 151 154 143 137 138 136 127 128 128 136 138 136 130
211 107 95 116 158 277 239 211 190 178 164 162 157 154 154 154 153 154 158 160 171 172 169 169 167 168 174 178 177 168 159 159 153 150 147 145 142 137 134 128 130 131 130
99 87 126 121 177 225 204 190 183 177 161 149 150 149 151 150 150 149 158 172 178 185 195 193 194 191 192 178 174 170 171 170 166 155 151 156 155 148 148 147 148 147 141